Fairbanks Eiels, AK

5:04 PM AKDT on October 22, 2017 (GMT -0800)
Eielson Air Force Base

Weather History for PAEI - December, 2011

Change the Weather History Date:

Tuesday, December 27, 2011

  Actual Average Record
Temperature  
Mean Temperature -12 °F -  
Max Temperature -5 °F 2 °F 41 °F (2001)
Min Temperature -19 °F -14 °F -58 °F (1961)
Degree Days  
Heating Degree Days 77    
Moisture  
Dew Point -16 °F    
Average Humidity 77    
Maximum Humidity 84    
Minimum Humidity 73    
Precipitation  
Precipitation 0.00 in - - ()
Sea Level Pressure  
Sea Level Pressure 29.28 in    
Wind  
Wind Speed 1 mph (SSE)    
Max Wind Speed 6 mph    
Max Gust Speed -    
Visibility 9 miles    
Events Snow    
Averages and records for this station are not official NWS values.
T = Trace of Precipitation, MM = Missing Value Source: NWS Daily Summary

Daily Weather History Graph

Daily Weather History Graph

Search for Another Location

Airport or City:

Trip Planner

Search our weather history database for the weather conditions in past years. The results will help you decide how hot, cold, wet, or windy it might be!

Date:

Astronomy

Dec. 27, 2011 Rise Set
Actual Time 10:52 AM AKST 2:46 PM AKST
Civil Twilight 9:29 AM AKST 4:09 PM AKST
Nautical Twilight 8:19 AM AKST 5:20 PM AKST
Astronomical Twilight 7:17 AM AKST 6:21 PM AKST
Moon 11:17 AM AKST (12/27) 8:15 PM AKST (12/27)
Length of Visible Light 6h 39m
Length of Day
3h 53m
Waxing Crescent, 12% of the Moon is Illuminated
Dec 27
Waxing Crescent
Dec 31
First Quarter
Jan 8
Full
Jan 16
Last Quarter
Jan 22
New

Hourly Weather History & Observations

Time (AKST) Temp. Windchill Dew Point Humidity Pressure Visibility Wind Dir Wind Speed Gust Speed Precip Events Conditions
12:20 AM -9.4 °F - -14.8 °F 77% 29.22 in 10.0 mi Calm Calm - N/A   Mostly Cloudy
12:55 AM -9.8 °F - -15.2 °F 77% 29.22 in 10.0 mi Calm Calm - N/A   Overcast
1:55 AM -9.0 °F - -14.4 °F 77% 29.21 in 10.0 mi Calm Calm - N/A   Mostly Cloudy
2:43 AM -9.4 °F -18.6 °F -14.8 °F 77% 29.20 in 9.0 mi Variable 3.5 mph - N/A Snow Light Snow
2:46 AM -9.4 °F -18.6 °F -14.8 °F 77% 29.20 in 9.0 mi Variable 3.5 mph - N/A Snow Light Snow
2:55 AM -9.0 °F - -14.4 °F 77% 29.19 in 10.0 mi Calm Calm - 0.00 in Snow Light Snow
3:55 AM -10.3 °F - -15.7 °F 77% 29.18 in 10.0 mi Calm Calm - 0.00 in   Mostly Cloudy
4:55 AM -11.6 °F - -17.1 °F 76% 29.18 in 10.0 mi Calm Calm - N/A   Mostly Cloudy
5:55 AM -10.3 °F - -15.7 °F 77% 29.18 in 10.0 mi Calm Calm - N/A   Mostly Cloudy
6:55 AM -10.8 °F -20.2 °F -16.4 °F 76% 29.19 in 10.0 mi Variable 3.5 mph - N/A   Overcast
7:55 AM -11.4 °F - -17.0 °F 76% 29.20 in 10.0 mi Calm Calm - N/A   Overcast
8:35 AM -13.0 °F -22.7 °F -18.4 °F 77% 29.20 in 10.0 mi Variable 3.5 mph - N/A   Overcast
8:55 AM -12.8 °F -22.5 °F -18.6 °F 75% 29.21 in 10.0 mi Variable 3.5 mph - N/A   Mostly Cloudy
9:56 AM -11.2 °F - -16.6 °F 77% 29.26 in 10.0 mi SSE 1.2 mph - N/A   Overcast
10:55 AM -10.1 °F -21.7 °F -15.5 °F 77% 29.25 in 10.0 mi SSE 4.6 mph - N/A   Mostly Cloudy
11:55 AM -8.0 °F -16.9 °F -13.0 °F 79% 29.27 in 10.0 mi Variable 3.5 mph - N/A   Overcast
12:15 PM -7.6 °F - -13.0 °F 77% 29.28 in 6.0 mi Calm Calm - N/A Snow Light Snow
12:21 PM -7.6 °F -16.5 °F -11.2 °F 84% 29.27 in 5.0 mi SE 3.5 mph - N/A Snow Light Snow
12:55 PM -6.3 °F -15.1 °F -11.6 °F 78% 29.28 in 6.0 mi SE 3.5 mph - 0.00 in Snow Light Snow
1:12 PM -7.6 °F -20.6 °F -11.2 °F 84% 29.29 in 10.0 mi SSE 5.8 mph - N/A   Overcast
1:27 PM -5.8 °F -14.5 °F -11.2 °F 77% 29.29 in 10.0 mi South 3.5 mph - N/A   Overcast
1:55 PM -5.8 °F -16.7 °F -11.2 °F 77% 29.34 in 10.0 mi SSE 4.6 mph - N/A   Overcast
2:55 PM -7.6 °F -16.5 °F -13.0 °F 77% 29.32 in 10.0 mi SSE 3.5 mph - N/A   Mostly Cloudy
3:55 PM -8.9 °F - -14.1 °F 78% 29.33 in 10.0 mi Calm Calm - N/A   Mostly Cloudy
4:55 PM -8.9 °F -18.0 °F -14.3 °F 77% 29.34 in 10.0 mi Variable 3.5 mph - N/A   Mostly Cloudy
5:55 PM -9.2 °F - -14.6 °F 77% 29.36 in 10.0 mi Calm Calm - N/A   Scattered Clouds
6:55 PM -10.7 °F - -16.2 °F 76% 29.37 in 10.0 mi Calm Calm - N/A   Scattered Clouds
7:55 PM -13.9 °F - -19.7 °F 75% 29.38 in 10.0 mi Calm Calm - N/A   Scattered Clouds
8:02 PM -14.8 °F - -20.2 °F 77% 29.38 in 7.0 mi Calm Calm - N/A   Partly Cloudy
8:17 PM -16.6 °F - -22.0 °F 76% 29.38 in 6.0 mi Calm Calm - N/A   Haze
8:55 PM -15.7 °F - -21.5 °F 75% 29.37 in 10.0 mi Calm Calm - N/A   Overcast
9:55 PM -16.2 °F - -22.0 °F 75% 29.35 in 10.0 mi Calm Calm - N/A   Clear
10:55 PM -19.5 °F - -25.6 °F 73% 29.35 in 10.0 mi Calm Calm - N/A   Partly Cloudy
11:55 PM -15.0 °F - -20.7 °F 75% 29.33 in 10.0 mi Calm Calm - N/A   Overcast